Tracking 19574 objects as of 16-Feb-2019
HD Live streaming from Space Station
objects crossing your sky now

USA 65

Track USA 65 now!
USA 65 is classified as:


NORAD ID: 20929
Int'l Code: 1990-095A
Perigee: 36,297.0 km
Apogee: 36,359.6 km
Inclination: 15.4 °
Period: 1,463.5 minutes
Semi major axis: 42699 km
RCS: Unknown
Launch date: November 13, 1990
Source: United States (US)
Launch site: AIR FORCE EASTERN TEST RANGE (AFETR)
aabbcc
Your satellite tracking list
Your tracking list is empty




NASA's NSSDC Master Catalog

Two Line Element Set (TLE):
1 20929U 90095A   19035.35742763 0.00000000  00000-0  00000-0 0    03
2 20929  15.3988   5.2758 0007338   7.4830 352.5399  0.98394720    06
Source of the keplerian elements: McCants